GFSMW_700_spd_000.txt.gz
Wind_Speed
16 22 23 23 24 21 22 19 22 24 22 27 26 26 28 33 33 32 36 36 37 42 38 40 43 39 44 43 42 41 38 39 37 38 39 39 37 37 36 37 38 42 43
17 21 28 28 21 19 19 18 22 23 22 29 31 28 38 36 35 34 36 41 46 47 49 47 48 47 40 42 40 39 40 41 40 41 44 47 46 43 40 35 34 39 42
17 19 22 17 15 16 16 20 23 23 24 31 34 39 37 37 37 39 48 52 55 52 37 42 42 42 40 38 40 41 43 47 45 46 47 47 49 51 49 47 44 40 36
6 2 9 9 10 11 15 18 22 23 27 33 34 36 38 39 50 49 40 38 38 39 40 38 38 39 43 42 44 46 49 50 52 53 52 51 53 57 59 54 52 47 43
6 10 11 13 15 17 19 23 28 30 32 34 36 40 46 46 46 44 46 43 45 42 39 41 43 46 50 51 50 52 53 55 56 55 55 53 48 46 48 56 58 55 51
8 11 16 21 21 23 25 25 26 30 34 37 39 41 40 40 45 50 53 51 48 46 45 48 51 52 54 54 55 56 56 55 53 46 43 42 44 46 46 48 51 53 53
5 2 3 11 22 24 21 21 23 25 31 39 42 40 46 52 54 49 48 48 50 49 50 52 51 54 57 57 57 53 45 46 38 38 41 41 40 39 40 42 41 47 50
8 8 15 17 22 27 30 30 31 30 34 38 43 48 53 53 48 49 49 51 50 49 49 53 54 56 56 53 53 47 39 35 34 35 35 34 35 38 35 40 34 35 37
10 14 9 16 20 24 29 38 37 36 31 38 43 54 53 51 50 55 52 47 47 47 51 53 53 54 53 48 45 40 38 39 36 36 36 38 38 38 32 31 29 23 30
10 11 11 19 24 29 33 33 36 39 43 40 53 46 46 49 49 46 45 48 48 50 52 53 53 48 45 42 40 38 36 37 36 34 36 32 30 26 25 25 27 27 26
11 15 14 16 23 31 40 34 43 46 44 49 51 48 42 42 42 43 47 49 51 52 50 46 42 39 39 35 35 34 33 33 32 29 30 30 30 29 29 28 30 28 27
17 23 27 30 36 40 39 46 46 47 49 49 48 39 39 39 40 44 47 49 51 48 47 46 44 41 37 35 33 33 35 38 38 31 26 27 31 34 35 35 30 29 34
22 28 33 32 37 41 41 44 47 45 43 42 40 37 38 41 42 43 50 49 46 47 44 42 37 33 33 34 34 35 34 35 36 34 35 36 32 34 34 35 40 41 34
24 31 28 40 42 44 47 44 36 39 39 39 37 42 44 48 46 48 43 45 45 45 41 34 32 33 33 34 35 34 34 35 35 35 34 34 34 32 32 32 32 32 35
37 32 41 44 47 45 37 35 36 33 35 35 34 48 50 48 52 46 44 47 45 40 38 34 32 31 32 34 35 37 37 37 38 39 37 35 33 33 38 37 36 41 38
35 38 44 44 38 35 32 35 35 32 39 41 48 49 43 37 39 37 41 43 38 37 38 34 35 34 35 38 41 42 41 41 42 42 39 36 35 33 30 35 37 39 39
35 43 42 27 28 33 36 34 35 38 35 41 45 48 38 40 36 45 47 39 33 38 37 34 35 39 40 41 45 45 43 44 42 40 38 35 33 33 32 34 37 37 35
40 36 25 28 27 39 32 38 46 44 34 34 39 45 48 46 38 43 37 32 34 39 34 35 38 42 41 43 46 47 42 39 38 35 32 30 29 29 31 34 35 34 32
32 25 26 29 38 32 37 44 46 37 32 33 40 41 45 25 40 35 34 32 35 35 36 38 38 38 40 43 43 40 38 37 35 31 29 26 26 25 26 29 31 31 29
27 24 29 32 32 36 41 46 41 39 36 34 41 42 34 29 39 34 32 29 34 34 38 40 32 37 41 40 40 39 37 36 33 28 23 21 21 22 21 23 25 26 26
23 28 31 33 38 41 46 42 43 37 37 42 39 37 26 33 39 30 27 33 32 37 36 32 36 40 40 40 40 38 36 32 29 28 24 19 18 22 21 22 22 23 23
28 29 32 36 41 44 40 40 45 45 41 37 35 29 30 34 32 25 31 33 34 33 31 33 37 40 38 38 38 34 29 27 29 27 23 21 20 20 21 21 21 21 19
30 33 35 41 41 35 38 42 47 47 42 36 33 27 28 30 27 29 30 29 31 30 29 32 37 38 37 37 34 28 25 25 25 23 21 19 17 16 16 16 16 14 12
38 35 42 39 37 41 42 44 45 41 38 36 29 27 26 26 25 25 26 29 28 27 28 32 36 36 35 37 30 24 23 23 22 20 17 15 13 13 14 12 7 5 6
36 42 40 39 44 45 42 44 42 39 36 31 28 26 23 21 22 22 25 26 27 26 28 30 33 36 34 35 29 25 23 22 21 18 15 13 13 12 12 12 6 4 5
42 41 41 44 44 46 46 43 40 35 33 30 27 21 20 22 20 21 22 25 26 25 26 27 28 31 32 34 29 23 21 20 18 16 15 14 13 13 14 14 13 8 5

GFSMW_700_spd_003.txt.gz
Wind_Speed
21 22 21 16 15 17 23 28 24 19 16 27 20 24 28 32 38 42 34 31 34 40 48 41 44 48 39 34 35 36 36 35 36 40 42 41 39 40 38 35 32 32 34
20 21 22 22 22 23 21 21 24 22 25 28 27 29 30 34 38 32 38 42 44 51 46 43 41 41 42 37 33 35 39 38 39 43 45 48 46 44 42 40 39 40 38
21 22 23 22 19 12 11 12 14 17 21 25 29 33 37 39 38 35 40 46 47 45 46 42 41 42 40 39 38 39 41 45 44 46 48 52 52 54 50 46 45 46 48
22 22 17 7 6 8 13 15 16 18 23 27 32 34 34 35 37 43 49 46 48 48 44 43 43 42 41 43 46 46 46 47 48 49 48 48 50 53 57 52 48 48 50
14 16 15 12 14 17 20 22 25 24 28 29 32 33 37 42 44 45 47 52 50 46 43 42 42 43 44 44 46 48 51 52 52 51 47 45 42 46 46 57 58 53 51
10 13 14 15 15 18 21 20 20 24 28 32 35 36 36 38 43 48 51 50 46 45 46 48 44 44 45 47 50 49 50 48 47 44 42 45 43 45 43 45 48 52 53
12 18 21 21 21 18 21 27 26 32 34 37 38 40 44 44 52 52 45 44 47 47 41 41 42 43 46 48 50 50 48 46 44 42 40 39 39 35 34 35 36 37 35
13 10 13 15 18 18 22 37 39 37 38 40 46 47 48 48 51 55 46 43 47 47 46 44 46 48 50 52 51 47 44 43 41 42 39 41 37 35 37 37 37 37 35
14 17 16 20 8 17 26 35 39 41 45 45 46 46 48 48 54 57 48 52 51 46 45 47 49 50 48 46 43 41 40 41 42 43 41 38 34 35 36 34 29 28 31
8 11 20 23 24 25 33 36 41 42 42 48 45 44 47 49 55 53 52 50 45 46 46 47 45 44 43 42 39 37 36 36 36 37 36 36 34 32 27 28 29 29 32
13 19 19 25 30 29 32 39 40 42 43 46 44 41 43 50 48 41 44 48 46 47 46 46 47 47 43 38 33 33 33 32 31 28 24 29 31 33 32 33 35 28 30
19 23 26 28 32 39 38 37 42 45 44 42 40 39 42 46 34 45 52 58 45 44 41 49 49 43 37 34 34 33 33 32 31 31 30 29 30 32 33 34 35 35 36
25 27 27 39 42 38 42 45 45 41 36 38 40 41 41 41 38 47 54 54 42 38 50 52 42 41 37 34 33 33 33 34 35 37 38 36 35 34 33 32 34 34 34
24 31 37 39 38 44 47 45 37 36 36 37 40 42 42 43 46 55 53 46 36 44 47 43 42 44 33 30 32 35 36 38 40 41 40 39 39 38 36 34 33 34 36
36 39 42 41 43 47 44 37 39 38 37 39 38 43 42 42 47 51 57 33 38 42 40 40 42 42 33 32 36 41 42 44 45 45 44 42 40 37 33 33 33 35 38
46 39 36 43 44 41 38 41 45 43 44 45 42 37 41 44 47 51 44 31 29 34 40 38 44 37 36 38 41 45 46 48 49 46 42 38 34 32 33 34 35 36 37
41 39 42 43 38 36 40 44 45 46 47 47 42 36 37 40 42 46 27 29 31 33 34 40 38 36 38 43 44 47 50 48 44 41 38 34 30 29 29 30 32 34 36
37 39 33 29 31 35 42 45 46 47 47 44 41 36 38 41 44 37 30 27 30 31 34 35 36 36 38 40 45 46 44 43 38 35 33 30 28 27 27 28 30 30 32
35 28 27 30 37 44 44 45 47 48 45 44 38 33 36 37 36 32 25 27 28 30 35 35 33 29 33 40 43 43 43 38 34 30 26 24 22 22 23 24 26 26 25
35 31 33 36 43 42 45 49 51 47 47 44 40 37 35 34 30 29 29 25 29 32 35 34 28 30 38 43 43 42 41 35 30 26 24 22 20 19 20 19 21 23 22
28 30 33 41 42 46 47 52 49 48 47 42 39 36 32 28 23 24 25 27 29 34 33 28 28 34 39 43 43 42 37 32 30 29 26 21 18 18 20 21 21 20 20
29 33 39 43 46 46 51 51 48 46 42 39 39 34 29 26 24 24 26 28 32 30 27 26 27 32 36 40 39 38 31 29 30 29 25 20 18 16 17 18 18 17 15
34 40 43 45 45 48 50 47 47 45 42 38 35 31 27 25 23 25 26 27 27 26 26 26 27 30 34 36 36 32 28 26 26 24 22 19 17 15 16 16 15 12 9
38 40 42 43 44 44 45 44 44 44 39 35 31 28 27 24 20 19 22 24 23 23 24 25 26 28 32 34 33 30 23 22 22 21 18 17 16 16 16 15 10 6 4
39 40 41 43 43 44 42 41 43 41 35 31 28 26 23 19 19 22 21 22 23 24 25 24 25 25 28 32 34 32 25 22 21 19 17 16 15 14 14 14 14 9 5
40 42 42 42 42 42 42 41 41 38 34 28 26 24 20 20 22 21 21 22 22 23 22 21 22 23 26 28 31 34 27 22 19 17 16 15 14 16 18 17 17 16 13

GFSMW_700_spd_006.txt.gz
Wind_Speed
22 19 18 17 14 16 18 18 19 24 21 20 13 15 22 26 29 32 32 30 33 36 46 45 46 45 48 47 42 41 40 40 39 42 42 41 38 38 38 41 42 43 43
22 21 20 17 16 20 21 20 15 15 14 13 18 23 25 28 28 30 36 41 41 44 42 46 48 49 45 42 41 42 43 42 42 45 46 50 47 42 41 43 46 46 46
14 17 16 16 15 10 7 7 7 10 15 20 24 26 27 29 34 36 36 36 41 44 47 49 47 43 42 43 43 42 44 46 46 46 48 51 53 54 49 47 48 49 50
10 12 14 11 4 6 9 12 13 17 21 24 26 28 31 34 37 38 38 38 43 48 49 45 41 41 43 46 47 46 45 46 47 47 47 47 49 53 59 57 53 51 51
9 10 14 16 16 18 19 18 21 24 23 24 26 26 29 29 32 37 39 45 48 49 49 42 40 43 44 41 43 43 44 46 47 47 47 47 48 49 49 58 57 55 50
7 7 8 8 10 16 19 17 14 20 22 27 34 36 39 42 44 46 50 48 50 49 56 44 43 42 44 44 44 46 49 51 51 49 47 46 46 47 45 48 52 49 48
16 11 12 17 18 25 20 24 27 30 32 39 42 43 46 50 51 47 48 40 52 43 52 43 43 45 48 48 50 52 53 50 47 45 45 43 40 43 43 44 43 43 41
13 9 15 18 21 23 27 28 28 29 35 41 44 46 47 43 46 53 54 48 50 51 46 46 51 53 50 51 51 50 51 47 44 43 44 45 43 42 41 40 40 41 40
10 13 15 19 24 24 29 28 28 32 37 41 44 46 43 43 50 49 55 55 54 42 42 46 46 46 41 43 45 45 45 44 41 38 36 35 34 34 32 31 33 31 33
13 15 20 25 26 24 21 26 36 44 43 46 49 48 45 43 44 45 45 41 40 45 47 46 39 42 45 49 47 46 42 33 31 30 28 28 29 28 29 30 30 33 39
15 18 22 24 25 24 31 37 45 43 46 52 46 40 40 42 44 44 42 42 47 41 49 49 52 41 42 40 41 40 36 29 27 28 30 31 31 30 30 32 32 36 40
21 22 25 30 32 36 41 44 41 44 49 43 40 40 41 42 42 45 44 44 47 48 50 50 31 37 37 37 36 30 29 30 32 33 35 36 37 38 38 37 34 36 40
22 25 27 30 37 43 45 45 46 47 39 39 38 38 40 41 43 46 50 48 42 43 44 35 29 36 37 40 27 28 32 33 34 38 41 43 44 44 41 41 41 38 36
24 26 30 41 47 48 46 47 46 40 39 38 38 41 43 43 42 43 43 39 38 45 35 27 33 36 38 34 31 33 35 36 40 43 46 47 46 44 42 42 42 40 38
24 30 39 44 45 46 47 44 41 41 40 40 42 44 44 43 39 38 42 45 44 43 39 29 35 37 37 33 34 36 37 41 45 46 47 46 45 41 39 37 37 36 36
31 39 41 43 46 46 43 41 41 41 41 43 44 42 44 44 40 39 41 41 34 36 29 31 35 35 33 34 35 36 40 44 45 45 44 42 41 38 34 32 33 34 34
40 41 43 44 43 40 41 41 41 41 43 45 45 43 44 42 38 36 34 30 25 21 26 31 32 34 34 35 35 39 42 44 44 44 40 37 34 31 29 27 28 29 32
39 43 41 39 39 40 40 43 43 44 45 46 46 42 42 38 36 34 28 24 24 22 26 28 33 35 34 34 37 40 44 44 43 36 33 33 31 28 26 24 23 24 26
40 39 37 38 39 41 43 46 46 46 46 48 46 43 41 37 34 31 27 23 22 22 26 30 36 35 32 33 37 41 43 43 36 30 30 31 29 25 22 23 21 21 20
34 34 35 37 40 43 46 47 49 49 50 49 46 43 39 35 32 28 24 23 23 26 30 34 36 33 32 34 37 42 41 39 32 29 29 27 24 21 20 21 21 19 18
33 34 34 37 41 46 47 48 50 50 48 47 43 41 36 33 30 26 25 25 25 27 32 33 31 31 31 34 36 39 41 37 31 30 29 25 21 19 18 19 19 19 16
31 33 35 38 44 45 47 48 48 48 46 43 40 37 33 31 27 26 25 24 25 26 27 27 29 28 29 31 33 36 38 33 29 28 27 23 20 19 19 18 17 16 14
31 33 37 41 42 43 44 46 46 45 43 40 38 35 31 27 25 24 21 21 23 24 23 26 26 24 27 28 30 33 34 28 26 25 24 22 20 18 17 18 17 12 6
32 37 39 41 42 43 44 44 43 43 40 37 35 31 29 24 20 19 21 21 22 22 24 25 23 23 25 25 27 30 30 26 23 22 21 20 19 17 18 18 16 11 7
37 38 40 42 44 43 41 41 43 39 37 34 30 28 26 22 20 20 21 21 21 23 24 24 22 21 23 24 26 29 30 29 24 21 20 19 16 16 18 16 15 14 11
37 39 41 43 41 39 38 41 41 39 38 31 25 25 24 22 21 21 22 23 22 22 23 23 21 21 22 23 24 26 28 29 25 21 18 17 14 16 18 18 17 16 15

GFSMW_700_spd_009.txt.gz
Wind_Speed
21 17 17 14 14 16 20 19 21 23 23 18 17 13 15 23 26 30 30 32 34 35 41 41 47 48 50 53 53 49 45 44 46 49 50 47 44 44 45 47 47 47 47
20 17 17 15 16 17 16 17 21 20 14 15 14 19 23 26 28 30 30 33 37 39 42 44 46 51 52 52 49 46 46 46 49 52 55 57 54 49 48 48 50 51 50
7 10 10 11 12 17 20 17 13 11 14 16 19 21 22 24 26 29 31 35 38 42 44 48 53 53 51 49 48 46 47 49 49 50 51 53 54 55 51 48 51 52 52
10 6 9 12 13 10 11 13 11 13 15 15 15 17 20 24 28 32 36 40 43 46 49 53 51 55 48 41 44 45 46 46 46 45 45 48 52 56 60 56 52 52 53
6 7 10 13 14 15 18 19 18 17 15 20 24 27 32 37 39 42 45 47 49 53 58 46 51 46 42 42 39 42 46 49 51 52 52 51 53 57 60 62 58 56 51
6 9 6 10 5 11 14 14 17 21 28 32 34 39 42 45 48 51 53 52 54 51 50 44 52 58 47 42 44 45 46 47 48 47 50 55 56 55 55 55 55 55 54
10 15 18 13 13 16 16 18 25 28 33 36 41 45 48 48 50 53 51 49 46 54 57 48 51 50 53 48 48 51 44 43 44 46 49 47 51 51 48 48 49 50 50
18 26 18 15 15 18 20 23 30 34 34 38 43 47 47 49 49 46 48 51 51 49 50 44 40 48 33 42 46 44 44 43 45 42 42 40 39 40 41 40 37 39 39
20 21 19 17 18 21 24 28 34 34 37 42 47 47 48 49 47 47 49 50 48 43 41 40 45 40 43 44 43 35 39 46 45 40 35 34 36 37 36 35 34 34 40
21 22 21 21 22 24 27 28 33 41 44 45 45 46 48 46 47 48 47 46 45 46 43 42 41 49 53 41 33 37 40 40 34 29 28 31 34 35 35 34 34 35 38
21 24 24 24 26 24 26 33 40 40 41 43 47 46 44 44 44 46 48 48 47 45 47 45 42 44 42 35 35 37 37 32 29 32 35 35 37 38 39 40 40 39 38
24 26 27 25 25 27 31 43 41 40 42 44 42 42 43 45 46 47 46 47 47 44 35 33 36 38 33 31 35 38 34 32 33 33 35 38 42 44 44 44 43 43 42
25 26 26 29 32 34 39 40 40 40 39 41 43 43 46 48 46 45 45 45 43 43 42 44 40 30 30 35 37 35 34 33 34 36 41 45 46 46 47 46 44 41 40
24 26 27 31 34 39 41 41 39 39 42 42 43 44 47 48 48 48 46 42 39 38 37 30 25 27 28 35 36 35 35 34 36 41 46 48 48 48 47 42 39 35 36
24 26 29 35 38 39 39 38 40 42 42 42 43 45 48 49 49 46 44 39 38 35 30 28 23 23 32 33 35 35 35 36 40 43 46 46 47 44 40 37 35 32 33
29 35 38 42 38 39 38 40 41 41 42 43 45 47 49 48 47 46 42 39 34 29 22 23 25 31 29 34 36 35 36 39 41 45 45 45 40 37 36 35 32 29 30
35 36 39 40 40 38 40 41 41 42 44 46 48 49 49 48 47 43 38 35 31 26 21 27 25 25 30 37 36 35 37 39 43 44 44 39 37 37 36 33 30 27 25
37 40 41 42 37 39 40 40 42 46 48 50 51 50 49 46 43 39 36 32 29 22 22 24 25 29 34 38 36 35 37 39 42 43 39 36 36 34 31 28 26 23 21
37 37 37 33 36 38 39 42 46 49 50 51 50 49 46 44 40 36 32 30 27 26 26 25 28 32 36 35 34 35 37 38 41 39 33 32 31 28 25 25 24 23 19
37 32 30 33 36 38 41 45 49 50 50 49 48 46 44 41 37 34 30 28 26 25 26 27 30 31 33 33 32 34 37 39 41 33 28 29 27 26 25 24 23 22 20
30 29 31 35 37 40 44 46 47 48 48 47 45 44 40 38 35 32 29 27 24 23 24 25 28 30 31 31 31 33 35 38 40 32 27 26 26 25 23 22 21 20 18
25 30 33 35 37 42 44 45 47 47 45 43 43 40 37 35 33 31 26 22 21 23 25 26 27 28 29 28 29 31 34 37 37 30 26 25 25 23 21 22 22 18 14
27 32 33 35 39 42 43 46 46 44 42 43 40 38 36 32 30 27 23 22 23 23 24 25 26 27 27 26 28 30 32 33 33 28 24 23 24 21 22 21 20 17 11
30 32 35 39 40 42 44 45 43 40 41 42 39 36 31 27 25 23 22 22 23 24 25 24 25 25 24 25 28 29 29 29 30 27 23 21 21 21 22 21 19 16 11
32 35 38 40 42 44 44 41 39 38 40 39 35 31 24 24 26 23 21 21 23 25 24 23 23 24 23 25 27 28 27 26 27 27 23 19 17 17 20 21 19 18 14
35 38 38 40 43 44 41 37 36 37 39 36 33 27 20 24 28 23 21 21 24 24 22 22 22 23 23 25 26 26 25 24 25 26 24 20 17 17 17 19 20 18 17

GFSMW_700_spd_015.txt.gz
Wind_Speed
15 14 14 13 15 16 14 15 17 19 20 19 16 14 11 13 18 21 24 26 27 29 31 34 37 39 43 45 48 49 51 51 53 53 53 52 52 52 50 51 50 51 52
18 15 16 18 22 16 12 13 15 16 17 16 17 14 14 17 21 23 25 28 31 35 38 40 43 47 49 51 53 52 52 54 54 54 55 56 56 56 52 51 51 54 52
8 8 4 3 4 3 7 10 11 10 10 11 13 13 19 22 24 26 30 34 37 40 41 44 47 50 52 53 54 55 54 53 52 50 49 50 52 52 49 45 43 44 45
10 5 1 2 8 7 5 7 10 12 12 12 13 17 20 24 29 33 36 39 42 43 45 47 48 49 50 50 50 49 47 46 45 44 45 35 38 42 45 44 43 40 41
13 6 4 4 4 11 16 18 16 13 11 12 17 22 26 31 35 38 40 42 44 45 46 47 48 47 47 46 45 43 43 42 41 41 39 41 39 41 44 44 42 44 46
12 7 9 5 14 18 14 16 18 17 17 19 23 26 30 35 39 40 41 43 44 44 46 47 47 45 44 44 44 41 40 44 45 44 48 35 33 36 41 44 45 43 43
14 11 8 14 17 12 13 18 19 21 22 23 26 30 33 37 40 42 42 43 43 43 44 45 44 44 44 42 43 38 43 45 43 40 35 37 36 37 38 39 39 40 39
14 10 11 17 12 14 19 22 24 27 26 25 29 33 37 41 43 43 43 43 43 43 43 43 44 44 43 42 34 43 43 43 40 36 31 34 36 34 35 38 40 42 42
15 13 16 15 17 19 22 25 28 30 31 32 35 39 44 40 41 42 41 41 42 43 42 42 42 41 40 38 37 40 34 28 29 31 33 34 32 34 36 36 38 41 47
17 16 18 19 22 23 26 29 33 33 34 37 38 41 35 38 39 40 41 41 42 42 42 42 40 38 37 34 32 30 29 30 32 33 36 36 35 35 35 37 40 42 46
19 20 21 24 26 28 30 36 37 31 37 38 39 35 36 38 41 42 42 43 44 43 41 41 39 36 35 31 28 30 30 33 31 35 36 35 35 35 37 39 42 45 46
23 25 25 27 30 31 36 41 34 39 40 39 33 35 39 42 43 44 45 46 45 43 41 40 36 34 31 27 27 27 29 32 33 37 37 36 36 37 40 42 45 46 44
27 27 27 28 31 34 37 36 39 39 34 30 34 38 41 43 44 46 47 48 46 43 40 37 34 30 26 25 26 25 29 32 36 36 36 36 37 38 40 44 45 42 39
29 28 27 29 32 34 37 34 42 32 30 34 36 40 42 44 46 48 49 48 45 43 40 36 31 27 26 25 25 28 29 32 34 36 35 36 37 40 42 43 39 37 38
29 28 28 28 32 36 35 40 34 32 32 34 37 41 44 46 48 49 48 46 44 40 37 33 29 25 22 22 27 28 30 32 35 34 34 34 36 39 41 37 35 36 35
28 28 27 32 30 34 35 35 34 31 33 35 38 42 45 47 49 48 46 44 41 38 35 30 26 22 21 26 26 28 31 34 33 33 33 34 37 39 36 31 32 32 31
25 26 28 27 32 33 35 35 31 31 34 36 40 43 46 49 49 46 44 43 39 36 33 29 26 24 24 24 28 30 32 31 31 32 33 34 36 38 34 31 30 29 28
22 23 26 30 32 35 36 29 29 32 34 38 41 44 48 49 47 44 43 41 37 33 30 27 25 24 23 25 28 28 28 29 29 31 33 34 35 36 31 30 29 27 27
21 25 27 30 33 34 30 28 31 34 37 40 42 45 48 47 43 42 41 39 36 30 27 25 22 23 25 26 26 26 27 27 27 30 32 34 34 32 28 28 27 29 27
23 26 30 31 31 29 27 30 33 36 39 41 44 46 45 42 40 41 39 37 31 26 24 23 23 24 25 26 26 27 26 25 27 29 30 32 33 29 25 25 26 27 26
23 29 36 29 27 26 26 31 35 38 40 42 45 44 41 39 38 37 36 31 25 24 23 23 24 25 26 26 26 25 25 26 28 29 28 30 30 26 22 22 25 27 27
28 32 35 29 25 22 27 34 38 39 40 43 43 41 38 36 36 34 32 26 22 23 22 23 24 26 26 25 24 23 24 26 27 27 27 28 28 24 21 21 22 25 25
34 31 26 20 17 23 29 35 37 39 41 40 40 37 35 33 33 31 29 25 23 24 23 23 25 26 24 22 21 21 23 25 26 26 26 26 26 24 21 21 21 23 24
35 26 12 12 20 26 32 34 37 39 40 39 36 32 32 31 31 29 26 24 22 23 24 24 25 25 22 20 19 21 23 24 24 24 24 23 24 25 24 22 21 21 22
35 16 11 16 22 28 31 34 37 39 38 34 32 31 30 29 29 27 25 24 23 22 23 24 24 23 19 18 19 21 22 22 21 21 22 21 21 22 22 22 21 19 20
15 8 14 18 23 27 31 34 37 37 33 32 32 31 29 28 27 25 24 22 21 22 23 24 23 20 17 16 18 20 21 19 19 20 21 20 20 20 21 20 20 19 17

GFSMW_700_spd_018.txt.gz
Wind_Speed
14 14 13 14 14 15 14 15 17 19 18 14 14 10 9 9 11 13 17 19 22 26 29 33 35 36 39 42 45 46 47 49 49 48 49 49 48 51 50 53 52 51 54
17 18 18 19 20 21 20 17 14 14 12 11 11 13 10 10 13 16 19 23 27 31 34 35 38 40 42 45 47 47 47 47 52 52 50 49 45 35 31 49 51 52 54
17 16 15 11 10 11 9 5 7 9 10 10 9 7 10 12 16 21 26 30 33 36 38 39 40 42 44 45 46 47 47 45 47 52 49 48 45 48 47 42 44 45 45
16 14 11 10 8 7 1 9 12 8 8 8 10 10 14 19 22 28 31 35 38 39 40 42 43 44 43 44 45 45 43 46 44 46 42 43 43 42 46 43 35 39 38
16 14 15 11 7 4 11 12 11 16 16 15 16 18 22 25 28 31 34 38 39 40 42 43 44 44 43 43 42 44 44 43 42 37 41 40 41 40 37 39 37 37 34
20 19 15 10 4 12 7 10 12 15 16 19 22 24 28 31 33 35 39 38 38 41 42 45 42 42 41 42 42 41 38 35 33 39 41 43 38 35 34 33 33 35 34
21 16 11 9 7 10 10 12 16 17 20 23 26 30 33 33 34 38 39 39 40 40 39 39 40 40 40 40 41 41 39 38 39 41 38 34 31 32 28 25 26 28 33
21 16 13 12 11 10 14 17 19 22 26 28 30 33 32 34 37 37 38 39 39 39 39 39 39 39 39 41 40 37 39 37 35 32 31 31 30 25 23 24 26 33 36
21 18 15 15 14 15 19 22 25 28 34 34 36 28 34 40 39 36 37 38 38 40 41 40 39 39 38 36 32 31 35 33 31 29 30 29 24 25 24 25 26 30 41
25 22 20 17 18 21 23 26 30 33 37 35 33 34 40 36 35 35 37 38 39 41 41 41 41 38 31 26 31 34 29 30 30 27 29 28 26 28 28 26 27 32 37
27 24 23 22 23 26 28 30 33 37 40 37 38 42 35 33 34 37 39 41 42 42 42 41 39 38 36 33 28 26 28 29 27 29 31 32 33 32 30 29 32 33 32
29 27 26 27 28 30 29 33 37 40 42 33 37 34 32 34 37 40 41 43 44 44 43 41 39 37 35 27 25 26 30 28 26 30 32 34 36 36 34 34 34 36 40
29 30 30 31 33 33 31 37 40 40 33 33 32 35 36 37 39 41 43 45 46 45 44 41 40 37 30 27 25 29 27 26 30 32 35 37 37 36 35 36 40 43 43
32 33 34 35 36 33 36 39 40 34 32 33 36 35 36 38 39 41 45 46 46 44 42 40 38 34 30 27 23 22 25 28 30 34 36 37 35 34 35 38 40 41 37
29 32 34 35 34 34 36 40 32 32 34 37 33 34 36 38 40 43 46 46 44 43 42 39 35 30 27 24 22 24 28 28 32 34 35 35 34 33 35 37 38 35 33
25 27 30 32 33 33 37 33 33 35 37 33 32 33 36 38 41 44 46 45 43 42 40 36 28 24 25 25 25 24 26 29 32 32 32 32 33 35 35 34 33 31 32
21 24 27 30 31 34 34 36 32 36 32 30 31 34 37 39 42 45 45 43 42 40 37 32 22 25 27 24 23 23 26 28 30 30 30 31 32 33 33 33 29 28 27
20 23 27 29 31 34 37 30 32 30 27 29 32 35 37 40 43 44 43 41 39 36 35 29 26 25 24 24 24 24 25 27 28 28 29 30 30 31 31 31 26 26 27
20 23 27 31 32 36 40 37 28 25 26 29 34 36 38 42 43 42 40 36 35 34 30 25 24 23 25 23 24 25 25 25 25 26 28 28 28 29 30 27 25 25 26
21 23 25 29 33 37 44 34 26 23 26 32 35 37 40 42 42 39 35 33 33 30 25 24 23 22 24 24 25 24 23 23 23 25 26 27 25 27 28 25 25 25 26
24 24 27 31 35 38 35 23 19 24 28 32 35 38 40 41 38 34 32 31 29 27 24 23 22 22 23 26 25 22 22 22 24 25 24 24 25 25 25 23 22 24 25
28 28 33 36 37 42 29 17 22 25 29 33 35 37 39 37 34 32 30 28 26 24 22 22 22 22 23 24 23 21 20 22 24 24 22 22 22 23 23 22 21 22 24
34 33 35 43 39 23 15 18 23 25 30 33 35 37 36 33 31 30 28 27 25 23 22 22 22 22 24 23 20 19 19 21 22 22 21 21 21 21 22 22 21 20 21
35 40 42 38 25 15 15 19 23 27 30 32 35 34 32 31 30 28 26 26 24 23 22 21 21 22 22 21 19 17 19 20 20 19 19 20 20 20 20 22 22 20 19
37 41 34 22 12 14 15 17 23 27 29 32 32 31 31 31 28 25 25 24 23 22 21 20 22 22 21 20 17 16 17 18 18 18 18 19 19 19 20 20 21 21 19
39 33 19 11 10 12 16 21 24 27 30 31 30 30 30 28 26 25 25 24 23 23 21 20 21 22 21 17 16 14 15 15 15 16 17 18 18 18 19 19 19 19 19

GFSMW_700_spd_021.txt.gz
Wind_Speed
20 18 18 17 18 18 20 17 18 18 23 15 16 11 8 8 10 11 14 16 18 21 24 29 33 36 37 41 43 45 45 46 46 49 49 47 43 37 29 27 26 35 41
22 21 21 20 20 20 22 20 19 16 14 15 14 11 10 11 13 14 15 18 23 27 31 33 37 39 40 42 44 46 46 45 44 45 49 49 45 37 25 35 39 38 41
22 22 22 22 22 22 21 19 13 10 11 13 11 12 13 14 15 17 22 24 28 32 36 40 40 40 42 43 44 46 45 43 44 41 45 46 44 46 41 42 44 40 40
19 21 19 19 17 15 11 9 9 8 7 10 12 12 11 12 18 24 29 31 36 37 39 39 41 41 41 43 43 42 45 43 44 44 42 41 41 38 45 37 30 26 31
20 17 17 19 17 13 12 10 9 8 9 12 14 16 18 21 27 30 34 38 38 40 41 41 43 44 41 41 42 43 41 43 43 44 42 40 38 36 29 32 28 25 26
20 20 23 21 16 14 11 11 11 13 15 17 20 22 24 28 31 34 35 39 42 39 39 40 40 40 40 40 41 43 41 41 40 40 34 27 24 24 25 27 28 27 27
21 25 24 20 17 16 14 15 16 17 18 21 25 28 30 34 40 30 38 41 38 38 39 39 38 37 38 39 40 41 37 26 35 38 30 23 22 25 25 25 29 29 29
23 25 24 22 20 18 15 18 20 21 23 26 30 33 33 38 33 37 34 35 36 38 38 38 39 39 39 39 41 33 24 32 38 36 28 26 26 25 23 25 26 33 33
23 26 25 24 23 21 18 19 22 24 26 30 33 34 37 37 38 34 34 36 37 37 39 40 41 41 40 37 29 28 30 37 42 31 30 31 28 26 28 28 28 32 36
22 26 27 26 25 24 23 23 25 27 28 32 36 38 40 38 38 37 34 36 36 39 40 41 40 39 39 38 28 28 29 31 36 29 28 31 28 31 31 30 28 30 35
23 25 29 28 28 29 28 28 30 32 31 37 39 38 41 36 33 33 36 38 39 41 42 41 42 41 38 34 31 22 26 31 32 29 32 29 32 32 33 32 31 31 32
23 24 30 30 31 32 32 34 35 36 34 40 39 42 34 33 33 35 39 40 40 41 42 42 44 42 36 34 31 24 28 29 28 32 31 32 31 36 37 32 30 32 34
25 27 32 31 35 35 36 38 39 39 38 40 42 36 35 33 34 36 38 40 41 42 43 44 43 42 39 34 29 24 25 26 25 27 31 33 35 38 38 37 36 37 40
27 28 34 35 36 38 39 41 42 41 41 42 36 33 33 33 34 36 38 40 42 43 43 43 42 36 35 26 23 23 25 27 26 28 32 35 37 37 36 35 36 39 41
28 32 35 36 38 41 43 42 42 41 40 42 33 32 33 34 35 37 38 41 43 44 44 42 38 35 24 28 28 29 24 24 25 30 33 34 36 35 34 34 35 37 39
25 28 31 34 36 40 41 40 39 41 41 40 35 32 30 31 35 37 38 42 43 44 43 40 36 31 24 28 30 27 24 26 28 30 31 32 34 35 36 36 34 34 35
23 25 27 30 34 38 39 38 39 43 42 41 34 28 29 32 35 36 39 41 42 42 39 37 35 30 28 24 25 24 25 26 27 29 29 29 30 33 33 34 34 33 29
18 21 25 30 34 37 40 38 42 43 47 43 38 25 29 32 34 37 39 40 40 38 36 35 34 29 28 23 24 24 25 26 27 28 27 28 29 33 30 31 30 29 26
23 25 24 28 32 35 38 42 44 49 45 41 25 26 30 33 37 38 40 39 35 35 34 31 30 26 26 23 23 24 25 25 25 26 26 28 28 30 28 29 29 26 24
25 23 23 24 28 33 37 43 45 51 38 29 23 26 28 32 37 39 38 34 33 33 32 31 27 25 24 24 22 24 24 24 24 24 26 29 26 25 25 26 27 25 24
28 27 27 31 31 38 40 46 51 44 29 20 24 24 29 33 37 36 33 34 32 30 29 29 26 25 24 24 22 23 23 22 22 24 26 26 25 23 23 24 25 25 23
30 32 32 35 41 42 45 49 43 30 19 23 22 26 32 35 36 34 32 32 30 29 29 29 25 25 25 23 20 22 21 21 22 23 23 22 22 22 22 21 23 23 23
34 36 40 43 45 43 44 39 24 17 18 18 23 29 33 35 33 31 31 30 28 28 29 27 25 24 23 22 22 20 20 19 21 22 20 20 21 21 21 20 20 21 21
37 38 40 42 44 43 37 31 16 14 17 22 26 30 34 33 31 30 29 28 27 27 27 25 24 23 20 23 26 22 18 18 20 20 17 18 19 20 19 19 20 20 21
36 38 39 43 40 33 24 15 13 16 19 24 29 31 31 31 31 30 29 28 26 26 26 26 24 23 22 23 23 22 21 19 20 18 17 17 18 19 19 19 19 19 19
36 35 38 40 27 18 17 21 19 18 23 27 30 31 32 31 30 31 31 28 26 26 25 24 24 23 23 24 23 20 19 18 19 18 16 16 16 17 19 19 19 19 19

GFSMW_700_spd_024.txt.gz
Wind_Speed
14 12 12 14 11 17 16 12 16 14 15 19 16 12 11 11 12 11 13 16 16 16 19 25 29 32 34 38 42 43 43 43 43 43 44 44 44 41 35 41 40 39 38
18 17 17 18 19 24 21 19 18 20 18 18 16 12 13 15 14 12 16 17 18 20 27 29 32 34 38 39 41 41 43 42 41 42 42 45 45 43 43 39 38 39 41
23 25 23 22 24 28 27 24 23 18 16 15 10 12 15 13 17 19 18 18 22 28 32 37 39 42 39 38 39 40 42 42 38 40 41 45 48 49 47 46 42 43 47
24 29 24 26 27 28 25 22 17 14 13 11 12 13 17 21 23 24 25 28 27 28 36 39 41 40 37 37 38 39 39 39 40 40 42 44 45 48 50 47 43 39 36
28 29 26 22 23 24 22 18 16 16 14 15 14 15 20 22 23 27 29 32 29 37 38 39 37 37 38 39 37 38 38 37 39 42 43 43 40 39 41 44 40 38 34
30 31 22 22 23 20 20 17 17 15 16 16 17 20 21 26 29 31 34 39 32 32 35 35 35 36 37 37 38 38 38 39 41 43 39 36 37 41 36 36 35 35 31
25 26 27 25 21 22 19 19 18 18 18 18 20 22 25 29 32 34 38 42 33 34 34 34 35 36 36 36 37 35 38 36 33 32 34 38 38 32 28 29 34 32 33
22 22 23 23 24 23 21 20 20 20 21 21 22 23 27 32 34 35 40 43 39 36 36 34 36 38 37 37 37 38 38 27 27 31 34 36 36 31 24 34 34 37 34
19 23 24 25 25 25 24 24 24 24 24 25 24 27 30 33 35 38 38 39 37 35 35 36 38 38 38 40 41 37 32 27 31 36 37 36 38 27 30 33 28 37 40
20 21 25 28 28 28 27 27 29 29 27 27 29 32 32 35 35 41 37 37 34 33 35 38 39 40 40 39 38 37 31 29 27 29 35 36 31 25 35 31 36 37 39
21 22 25 28 30 30 30 30 32 34 32 32 33 36 37 38 40 37 37 35 32 35 37 39 40 40 42 42 41 35 34 30 27 29 33 23 18 35 36 35 39 42 42
22 25 26 29 31 31 32 32 33 35 35 36 37 39 40 40 42 39 37 36 35 37 39 39 40 40 41 40 35 34 29 25 25 30 30 29 36 37 36 40 41 39 38
22 24 30 34 35 34 34 34 34 36 39 38 39 40 42 43 34 37 36 35 35 38 38 39 40 41 38 37 38 30 25 27 27 28 29 28 32 36 40 38 37 38 38
23 24 31 36 40 41 38 36 37 38 41 40 38 41 43 46 36 34 34 32 35 37 39 40 40 39 36 34 32 29 28 29 26 24 28 30 34 37 36 35 35 36 37
21 23 29 35 37 43 42 38 39 41 42 37 39 41 43 46 38 37 34 35 34 37 40 41 41 38 35 33 29 29 30 31 29 29 30 32 33 34 34 33 33 34 35
17 24 29 33 39 43 40 37 40 43 41 38 39 41 44 29 37 34 29 30 34 38 39 40 39 37 34 28 27 24 26 27 28 30 30 30 31 34 33 33 35 35 35
19 19 28 28 30 32 35 38 41 41 38 40 41 44 34 40 30 28 29 29 33 37 37 37 36 35 35 30 25 24 25 27 28 29 28 28 29 30 30 32 33 32 32
20 18 19 22 26 29 34 37 38 41 37 40 44 45 43 32 23 27 28 30 34 37 35 35 33 33 33 30 26 24 27 28 29 28 26 27 27 29 31 30 29 28 29
19 22 27 23 23 26 29 34 37 37 42 46 50 41 33 22 24 22 24 31 35 34 33 33 30 29 32 30 28 27 27 29 28 27 26 25 27 28 28 27 26 26 27
26 20 21 22 22 26 32 36 40 46 49 55 49 42 23 23 21 26 29 32 34 34 32 31 29 28 30 29 27 26 28 28 27 25 24 26 27 26 25 25 26 25 26
26 24 22 26 33 36 39 42 43 49 55 52 39 29 27 20 23 28 32 35 34 32 31 30 28 27 29 28 26 27 25 26 24 22 22 27 25 24 25 24 25 25 25
22 30 35 37 40 41 42 45 49 49 43 43 29 23 21 23 26 30 34 32 31 30 30 30 29 28 28 28 27 20 22 25 22 20 21 23 23 23 24 24 23 23 23
33 36 37 38 39 40 42 44 44 47 32 20 19 21 21 22 28 32 33 31 29 29 29 28 29 28 27 28 26 23 24 23 21 20 21 21 21 21 22 23 22 20 20
34 32 32 34 36 40 45 38 26 20 17 20 20 16 22 28 31 31 31 30 29 29 28 28 28 27 26 22 26 26 27 25 19 19 19 18 18 19 19 20 21 21 21
31 30 31 32 35 33 25 18 18 20 22 17 19 24 28 30 31 32 32 31 30 29 29 27 28 27 26 25 27 28 27 27 23 19 18 17 17 17 17 18 20 21 22
25 27 28 28 22 18 17 20 19 15 17 22 25 28 30 31 33 33 33 32 31 31 28 27 27 26 26 26 26 25 25 26 24 21 19 18 17 16 16 16 18 20 22

GFSMW_700_spd_027.txt.gz
Wind_Speed
7 8 9 11 9 8 8 6 6 10 11 13 15 14 14 12 12 10 13 16 17 19 19 20 24 28 31 33 36 37 35 35 35 35 34 34 34 36 35 36 38 37 37
10 12 16 19 14 15 11 12 11 12 17 20 18 17 15 12 10 14 15 16 16 17 19 20 26 30 32 35 35 35 35 35 34 34 35 34 34 36 38 38 38 39 39
16 16 16 20 20 20 19 15 18 18 22 22 21 16 12 11 14 15 13 16 19 22 24 26 31 31 33 31 30 33 34 35 34 34 36 40 41 43 43 42 43 40 40
22 23 22 22 24 26 26 19 22 24 24 20 18 17 17 16 17 17 18 20 24 27 35 32 31 33 33 32 32 32 35 35 36 36 36 39 42 44 45 45 46 45 44
25 27 30 30 27 30 26 26 25 24 19 19 17 16 17 20 20 24 25 26 29 30 38 40 35 37 34 34 36 35 34 35 36 37 41 41 41 39 41 47 44 40 31
27 28 32 35 35 27 22 28 24 20 17 16 16 16 19 21 22 26 27 29 32 36 41 41 36 34 34 35 36 34 36 38 39 39 40 39 41 39 40 42 39 36 31
29 32 36 39 39 27 22 21 19 18 16 16 18 19 21 22 25 28 29 31 32 39 40 37 38 37 35 35 36 34 34 36 36 37 37 37 38 37 36 39 38 38 32
36 39 42 43 36 22 21 22 21 19 16 16 20 23 24 27 28 30 30 31 35 42 36 37 39 38 33 36 37 35 35 36 36 36 36 35 36 35 36 37 37 34 37
27 31 34 29 23 20 22 26 24 22 21 18 20 25 28 31 32 34 34 34 37 37 37 37 37 35 33 35 36 38 38 35 33 33 34 35 35 32 35 33 31 33 43
20 22 22 23 22 20 24 29 29 27 26 24 25 25 28 31 33 36 38 45 35 34 34 35 35 35 34 36 37 36 35 34 33 31 33 34 35 35 32 28 31 37 41
18 18 18 20 20 19 21 28 32 32 30 28 29 31 33 35 36 41 43 41 44 35 33 33 34 33 33 36 35 34 33 33 29 26 29 28 30 29 26 31 36 44 40
22 24 23 22 23 23 20 21 27 32 35 33 33 35 37 37 39 42 43 44 39 36 36 33 36 32 34 36 37 34 31 29 28 28 29 30 30 29 30 33 37 40 44
22 25 27 29 27 28 29 31 33 34 34 35 36 37 38 39 42 44 40 49 36 37 40 34 31 33 36 34 34 36 34 29 29 31 31 29 30 33 33 35 37 37 37
18 23 27 30 31 33 35 34 39 40 40 38 36 34 36 40 41 41 46 33 34 36 32 31 31 34 37 35 31 30 32 31 30 30 31 29 31 33 34 35 34 33 33
10 17 28 29 31 33 35 37 38 41 42 39 36 34 38 39 44 38 38 40 38 30 32 33 29 35 37 36 31 31 31 28 28 29 29 30 32 33 34 31 30 32 33
15 20 19 24 27 31 34 36 38 40 40 39 37 38 41 44 44 47 45 36 29 28 34 27 31 35 37 37 29 30 29 27 27 28 29 30 33 33 30 28 31 33 34
19 19 22 28 31 33 33 35 37 36 36 38 40 44 47 49 50 48 41 36 29 32 27 28 31 35 37 34 29 28 28 26 27 28 29 31 31 29 27 29 30 28 28
21 19 19 19 24 28 30 31 31 33 36 40 44 49 53 54 56 49 37 31 28 24 28 31 34 36 34 31 28 28 28 28 28 29 30 31 29 25 26 27 25 25 26
20 20 21 25 25 23 26 30 32 37 40 43 49 56 56 56 47 34 34 29 24 27 32 35 36 31 30 29 28 28 28 28 29 29 30 29 26 24 26 24 24 24 24
25 25 29 31 30 30 32 33 37 40 42 49 52 57 57 46 33 30 21 21 24 30 35 35 32 29 27 27 28 27 28 28 28 28 30 27 23 25 24 24 24 24 24
28 26 26 28 29 30 32 37 41 43 45 53 55 41 32 36 26 21 18 23 30 33 32 31 30 28 25 25 26 26 27 26 24 27 26 24 22 23 22 23 23 23 23
27 29 28 26 26 28 33 38 41 48 50 46 38 40 35 25 23 20 25 30 30 30 30 30 29 28 26 27 28 27 26 22 25 26 24 22 23 22 21 22 21 21 22
27 24 25 25 24 27 31 38 38 41 41 39 29 25 23 17 19 25 28 30 30 29 29 30 30 29 27 28 29 27 24 25 26 25 24 21 21 20 19 18 19 18 20
24 22 24 26 28 31 33 34 33 27 23 21 23 17 17 21 26 27 29 31 32 32 30 29 30 29 30 29 28 28 26 28 27 27 24 21 20 18 16 16 17 17 20
24 29 28 29 27 24 21 18 18 19 20 19 18 20 24 26 28 31 32 34 34 33 33 29 30 30 29 29 29 29 28 29 28 28 25 20 19 17 15 15 16 16 18
28 27 25 21 18 17 18 18 19 19 19 20 23 26 28 30 31 33 34 34 35 34 34 35 33 31 30 30 28 27 27 28 28 26 24 20 19 17 16 15 15 15 17

GFSMW_700_spd_030.txt.gz
Wind_Speed
5 5 5 7 9 11 9 8 7 9 8 8 10 10 12 15 13 12 14 15 16 16 18 19 21 25 26 31 31 34 34 34 33 34 33 33 33 34 34 34 34 36 38
11 10 8 9 8 7 7 10 9 10 11 13 14 15 15 15 15 14 12 13 16 18 19 20 24 26 34 33 32 36 35 35 34 35 35 34 34 35 37 36 38 39 39
13 14 14 12 13 12 12 12 11 14 15 17 19 19 16 15 14 12 10 11 13 16 18 22 24 31 31 34 39 35 35 35 35 36 36 38 39 39 39 40 41 41 39
17 19 20 19 17 16 17 17 16 17 22 21 22 18 16 16 13 12 11 12 14 17 20 25 30 34 36 35 35 36 35 36 36 38 38 38 41 42 44 42 42 42 41
21 23 24 23 22 20 20 17 23 23 27 25 19 17 15 16 14 13 14 17 20 23 26 29 35 38 38 37 38 37 39 40 38 38 39 40 40 40 41 43 41 41 37
29 28 27 25 23 22 25 25 28 27 29 21 16 15 16 17 16 17 20 23 26 29 30 30 35 39 36 37 39 39 40 40 38 39 41 42 42 42 41 43 42 43 40
24 27 30 28 28 28 28 25 27 25 19 16 17 17 18 20 22 25 27 29 32 31 36 34 38 35 38 41 40 40 40 40 39 40 39 40 40 40 41 42 42 43 40
26 24 24 27 29 27 24 26 28 20 16 18 18 20 23 25 28 31 32 33 35 37 40 38 39 39 39 41 42 40 41 42 40 37 37 38 36 36 38 39 40 37 42
22 28 27 31 26 25 29 29 27 22 20 20 21 25 28 29 31 34 35 37 39 40 41 51 41 43 41 40 40 40 43 40 36 34 34 34 34 32 32 34 37 38 39
16 17 21 24 25 24 25 26 25 23 23 23 25 28 31 32 34 36 38 40 40 49 47 46 47 48 39 39 40 36 36 34 34 35 35 33 32 32 31 31 31 30 32
14 13 12 11 12 15 17 17 18 19 23 26 29 33 35 35 36 38 40 43 43 50 48 43 47 43 39 40 35 35 32 34 35 35 32 32 31 31 30 28 30 32 36
15 15 14 14 15 15 17 16 15 16 17 20 23 25 28 34 36 39 42 43 46 46 52 47 44 43 33 37 42 37 34 32 33 34 33 33 33 33 31 30 32 34 37
11 14 18 19 20 20 21 23 23 24 26 27 28 30 31 30 33 37 40 43 45 49 51 49 47 41 43 36 29 30 32 36 35 32 33 32 32 31 31 32 34 34 34
18 18 21 22 23 24 25 25 27 29 29 28 30 32 31 33 34 38 42 46 48 53 53 45 42 43 39 28 28 31 35 34 34 33 33 32 30 30 32 33 33 33 34
14 17 20 24 27 30 31 32 34 30 30 30 31 31 32 38 40 43 48 50 53 54 51 44 40 43 30 28 31 33 33 33 32 32 31 30 30 31 32 32 32 32 33
15 14 17 21 22 27 28 28 29 28 30 29 29 31 38 42 45 48 51 55 58 56 44 41 43 31 28 31 34 33 31 32 32 31 30 30 30 31 31 30 30 32 35
16 19 19 21 22 22 23 25 25 28 31 30 32 37 41 46 48 51 56 60 50 39 37 37 26 26 31 34 36 34 32 31 31 31 31 30 30 30 28 28 29 31 32
18 20 20 21 21 24 23 29 30 29 33 35 38 42 44 46 51 59 57 43 34 34 32 25 24 30 33 34 33 32 31 31 31 31 30 30 29 29 27 26 28 27 29
19 21 20 22 24 25 25 25 27 31 34 38 43 48 49 50 54 48 29 34 38 26 25 26 30 33 31 30 31 31 31 31 30 29 30 28 29 28 25 25 25 24 25
22 24 25 24 21 21 22 24 28 33 40 45 53 57 52 48 37 33 45 37 26 22 26 30 31 32 29 28 30 30 30 30 30 28 26 27 28 26 24 24 23 23 22
20 21 21 22 21 20 21 24 30 35 41 39 43 44 51 41 41 37 27 18 22 26 28 31 31 32 31 29 29 30 30 29 28 27 26 27 27 25 22 23 21 20 20
21 23 23 23 22 23 24 26 28 31 35 39 35 35 39 36 27 24 23 24 28 29 30 32 33 33 33 32 30 30 30 29 27 25 26 26 26 25 22 22 19 19 19
24 26 25 24 26 27 27 29 32 35 38 40 37 30 28 28 27 25 26 29 31 32 32 33 33 33 32 32 31 30 30 30 28 27 27 27 26 27 22 21 19 17 17
28 25 26 27 28 29 30 30 31 27 23 22 24 26 27 26 26 28 30 33 34 35 35 35 34 33 33 31 32 32 30 31 30 30 28 28 25 26 23 21 20 18 17
24 25 27 27 32 31 27 23 21 22 23 24 25 25 25 28 30 32 33 35 36 37 37 37 37 37 36 32 33 31 31 28 30 34 30 28 25 25 23 20 20 18 17
26 28 28 28 24 22 22 22 22 22 23 23 26 27 29 31 33 36 36 37 38 39 39 37 38 39 39 35 35 33 32 31 30 31 29 25 24 24 22 21 19 19 17

GFSMW_700_spd_033.txt.gz
Wind_Speed
12 11 11 9 9 8 8 8 6 6 6 5 6 7 8 10 11 12 14 14 14 16 17 18 21 24 26 28 34 37 41 42 41 43 40 40 41 41 41 40 40 40 40
8 7 9 12 11 9 8 9 7 8 7 8 9 11 13 13 13 15 15 13 14 14 16 18 21 24 29 32 35 35 36 38 39 39 40 41 40 40 40 42 42 42 42
3 3 5 3 6 8 8 9 11 11 12 12 14 16 14 14 13 13 12 14 15 15 15 18 23 28 30 32 36 35 35 36 38 38 38 41 43 43 42 42 43 44 43
14 14 10 11 10 5 6 10 14 15 15 17 18 18 16 15 12 14 15 16 15 16 20 23 26 31 38 34 35 34 35 37 39 41 41 42 45 46 48 46 44 43 42
16 18 16 14 12 13 12 11 15 15 17 21 22 21 18 16 16 16 17 18 19 22 26 30 33 37 41 41 45 37 39 39 41 43 44 45 45 46 46 48 45 43 41
26 22 22 20 19 18 17 14 17 17 17 22 24 24 19 15 19 19 21 22 26 29 32 36 39 42 40 41 46 44 42 42 42 43 44 44 45 46 45 45 45 44 41
29 22 26 26 22 20 21 18 20 20 21 21 21 19 19 20 22 25 28 30 31 34 39 40 41 41 42 49 45 42 42 43 44 44 43 45 44 44 43 43 42 42 42
26 19 19 21 23 22 22 21 21 20 24 25 20 21 23 23 26 31 32 32 35 41 40 46 41 41 55 45 48 45 44 42 41 44 44 44 41 40 39 37 38 40 40
19 16 16 20 20 23 25 22 22 23 27 23 24 24 23 26 30 30 33 35 42 45 40 46 49 47 50 49 44 45 45 47 47 46 45 38 37 38 36 36 36 35 36
17 19 11 10 13 18 23 22 26 26 22 21 22 26 25 25 29 32 36 39 42 44 44 46 44 51 53 54 51 43 46 45 45 41 42 37 36 36 35 34 33 33 33
14 13 10 5 6 7 8 10 14 15 13 13 14 17 19 22 25 30 35 38 38 40 41 44 47 51 51 53 46 42 45 44 40 35 34 34 35 34 33 31 31 31 33
6 8 6 8 10 10 11 13 15 13 14 17 20 20 23 26 25 27 29 33 37 39 41 45 48 50 50 47 42 44 41 38 35 33 34 34 34 33 32 31 32 32 34
7 7 8 14 16 18 18 18 19 19 20 23 25 23 25 27 26 29 33 36 36 39 43 48 51 51 48 39 41 39 32 33 36 36 35 35 33 33 32 32 33 34 36
11 14 17 18 21 23 26 27 27 27 27 30 28 26 26 28 31 32 38 41 41 46 49 51 53 51 38 39 39 31 32 33 36 38 37 36 34 33 32 32 33 34 36
15 15 17 20 22 26 28 29 30 30 30 28 30 28 28 31 31 36 38 44 48 54 55 55 51 38 43 37 29 31 34 37 38 37 37 36 34 33 33 33 34 34 34
19 17 18 19 22 24 24 28 28 26 25 28 30 28 29 33 37 38 43 50 53 53 53 45 36 43 39 28 29 34 37 37 36 36 36 35 33 32 32 33 33 33 31
16 16 17 19 22 21 16 18 20 21 24 28 31 32 35 38 41 48 52 54 57 55 46 38 41 39 28 29 32 36 36 35 35 35 34 33 32 32 31 30 31 29 30
15 16 17 18 19 20 23 24 24 21 23 27 32 36 37 42 47 52 57 61 52 42 37 42 35 31 28 32 33 33 34 35 35 35 33 32 31 30 28 30 28 26 27
18 19 19 21 22 23 23 23 22 24 26 30 34 39 45 47 54 51 58 43 43 39 44 38 29 29 30 31 31 32 34 35 35 35 33 32 31 28 28 29 26 25 24
20 21 22 23 23 22 24 26 25 25 27 31 38 44 49 60 51 45 41 42 42 41 34 26 29 30 31 32 32 33 34 36 35 35 32 31 31 28 28 28 25 24 23
18 19 21 23 25 26 27 26 26 25 28 31 31 33 35 42 41 41 41 38 32 31 29 30 31 34 35 35 35 34 35 34 35 34 32 31 30 27 28 28 25 24 22
21 23 24 26 28 30 27 25 26 27 29 29 30 34 38 41 42 33 32 33 33 32 32 34 35 36 37 37 36 36 37 33 34 33 31 31 29 28 27 28 26 24 22
23 24 26 28 26 27 29 30 29 33 33 34 35 31 28 28 31 33 33 33 34 36 37 38 39 39 39 38 37 37 38 36 35 32 32 32 30 30 26 28 27 25 23
24 26 29 25 27 29 31 32 36 36 30 26 27 28 29 31 32 33 34 36 37 39 41 42 42 43 43 42 39 39 39 37 36 33 31 31 32 33 29 29 28 25 24
28 29 26 27 29 31 33 29 22 24 24 25 27 28 30 32 33 35 37 39 40 42 44 45 45 46 47 46 44 41 39 38 36 36 33 29 32 38 30 28 28 25 24
28 27 27 28 29 25 22 22 22 23 23 25 27 29 32 34 36 39 40 41 43 46 48 49 48 45 46 45 44 43 41 38 34 35 34 31 31 31 28 28 27 26 24

GFSMW_700_spd_036.txt.gz
Wind_Speed
15 16 17 15 15 15 13 12 11 9 7 5 4 1 2 5 5 9 11 11 14 15 15 16 16 17 19 22 29 31 32 36 39 40 38 38 40 41 42 42 42 43 45
10 11 12 12 11 11 11 11 10 8 8 7 6 7 8 9 11 11 11 13 14 16 16 15 18 20 23 28 31 33 31 36 36 35 40 42 38 40 42 43 45 47 47
5 5 4 4 3 2 3 5 8 8 8 8 9 10 12 10 10 11 12 14 17 16 17 19 21 24 27 30 33 35 36 39 38 37 41 44 40 43 43 44 45 48 49
12 8 8 5 1 3 6 7 10 13 11 12 12 14 15 15 14 15 16 17 19 18 20 22 26 29 33 37 39 41 44 47 45 42 45 40 43 45 48 49 51 52 50
17 15 11 10 7 7 10 9 11 13 12 16 16 19 21 19 19 22 21 20 21 22 24 27 31 35 38 39 44 44 44 42 45 44 43 43 44 44 48 52 52 49 47
21 18 15 17 15 14 14 17 16 17 17 16 16 18 22 23 23 25 25 23 24 25 28 33 38 40 43 43 44 48 50 43 46 46 41 43 44 46 47 49 48 48 45
25 23 20 16 20 17 15 19 26 18 19 18 19 21 22 24 24 25 28 27 29 31 35 39 42 44 52 41 45 43 49 44 48 44 41 41 43 45 45 43 41 44 45
19 20 21 16 16 19 17 18 22 17 19 20 20 22 20 21 23 26 27 28 32 36 38 38 42 52 46 39 46 48 46 46 45 40 41 43 44 42 42 42 41 41 43
11 9 14 13 14 20 17 17 18 23 19 21 22 23 21 21 23 25 26 28 30 32 32 35 33 39 44 47 45 44 46 43 43 42 42 42 39 37 37 37 37 40 42
5 5 10 14 11 15 16 17 17 18 21 22 20 19 16 18 22 22 23 24 27 28 31 35 40 41 43 46 45 48 49 42 42 43 39 36 35 35 35 36 37 38 37
7 9 11 14 9 8 9 8 9 10 13 13 12 13 14 18 21 23 24 25 28 31 29 35 41 41 43 44 47 50 43 42 42 37 34 33 34 34 36 36 35 35 34
4 7 7 4 4 4 3 3 9 11 13 15 17 18 19 21 22 23 26 28 30 32 28 35 41 42 45 48 50 40 40 41 37 33 34 34 37 36 36 36 35 34 34
6 5 5 6 9 11 13 14 18 19 23 25 25 25 25 25 26 26 27 32 30 34 33 42 49 47 52 52 45 39 40 38 33 34 36 38 37 36 35 35 35 35 35
12 11 10 11 14 15 19 19 21 25 27 28 27 27 26 27 27 29 29 30 33 37 45 48 48 53 60 43 38 41 40 33 33 35 37 37 36 35 35 35 35 34 34
17 16 14 16 17 18 20 22 24 26 27 27 28 26 27 29 31 32 35 38 42 44 57 47 57 66 38 37 41 41 36 33 34 36 36 36 35 35 35 35 34 34 34
18 20 20 19 21 21 23 24 25 28 30 29 28 28 29 31 34 37 41 42 42 47 45 53 57 40 38 41 41 36 33 33 35 36 35 35 35 34 34 34 33 33 33
19 18 18 18 20 23 24 23 24 25 25 26 27 28 30 32 37 39 42 43 48 53 55 49 44 40 42 41 34 30 32 34 35 36 35 35 34 34 34 33 32 31 32
14 15 17 20 23 24 24 26 27 27 25 23 24 26 29 33 37 41 43 49 58 57 43 42 42 41 37 35 30 32 34 35 35 35 35 36 35 34 34 33 31 31 30
17 20 23 24 24 24 24 24 23 23 24 25 25 26 29 30 35 48 47 49 45 42 38 38 39 37 30 32 31 34 35 36 36 36 36 36 35 34 34 33 31 30 29
20 22 22 22 22 22 22 23 24 26 27 27 29 31 28 32 35 34 37 37 39 39 38 35 34 32 33 33 34 36 37 37 37 37 37 37 35 35 34 33 30 30 29
22 21 20 21 22 24 26 28 29 28 28 28 29 29 30 28 30 34 40 41 39 35 35 35 33 35 37 39 40 40 41 40 40 40 38 36 35 35 33 33 30 29 30
20 20 22 23 25 28 30 31 28 28 29 28 27 35 33 34 34 31 31 34 34 35 35 37 38 38 41 43 43 44 44 43 43 42 40 36 35 32 38 36 30 28 29
21 22 24 26 28 30 32 28 29 28 32 35 37 27 27 28 29 30 31 33 34 37 39 41 42 43 43 45 46 46 46 45 44 42 40 38 36 33 38 36 35 28 30
24 25 27 29 29 30 28 29 31 35 29 23 25 25 26 27 30 32 34 36 37 40 42 44 46 47 49 49 48 48 47 45 42 40 40 40 38 34 32 39 36 32 32
26 28 30 30 28 27 28 31 26 23 24 24 25 26 28 31 32 34 36 38 40 43 47 49 52 54 54 53 50 48 46 43 42 38 38 38 34 30 32 32 27 30 32
28 29 30 29 27 28 26 23 23 23 23 24 26 28 31 32 35 37 38 39 43 46 48 51 53 55 55 53 50 47 40 41 43 33 33 31 30 29 26 27 26 31 30

GFSMW_700_spd_039.txt.gz
Wind_Speed
18 19 20 19 18 18 18 18 17 17 17 14 12 10 8 8 9 9 10 12 12 13 13 15 15 15 17 19 21 23 26 30 33 33 37 34 36 37 40 38 37 40 41
18 18 16 16 15 15 15 15 15 14 12 12 11 11 9 9 11 11 12 13 15 15 15 16 17 18 19 20 23 26 30 33 37 40 42 46 46 42 43 39 40 41 41
15 13 12 12 13 12 10 11 12 12 12 13 14 13 12 11 10 8 11 15 17 17 17 18 19 21 22 24 28 31 35 38 40 45 37 40 42 42 42 38 38 40 42
14 14 14 14 11 11 11 10 11 13 14 15 16 12 11 12 13 16 17 18 20 21 20 21 23 24 27 29 33 35 36 44 46 45 45 45 42 42 41 41 37 41 43
18 17 14 13 10 11 10 11 13 15 18 17 15 14 13 17 18 21 23 23 22 25 23 23 25 28 31 33 36 41 46 35 41 42 39 37 38 38 40 43 42 42 42
20 19 18 18 17 15 15 17 18 19 18 20 16 15 15 16 19 24 25 24 25 26 27 27 28 30 33 39 41 46 37 36 43 41 37 37 40 40 40 41 39 40 40
20 23 22 20 18 20 19 18 20 20 17 28 21 21 21 21 22 25 27 26 26 27 27 30 31 35 33 35 37 41 40 42 40 38 39 40 40 39 38 37 36 38 38
19 21 22 24 22 21 21 21 21 19 27 16 22 22 23 25 24 26 23 24 25 25 28 28 29 33 33 34 37 42 41 46 40 41 41 39 39 36 34 34 35 36 38
13 15 18 21 23 22 21 22 18 16 28 29 17 21 25 27 24 24 24 21 23 23 24 27 31 33 36 36 38 42 44 37 41 43 37 37 35 32 32 32 34 36 38
7 9 11 14 16 17 18 20 22 19 20 19 20 22 22 22 20 21 22 21 24 28 26 29 32 35 37 34 45 47 43 40 45 34 37 35 32 31 32 33 34 35 36
4 7 9 10 11 14 18 20 20 19 14 16 17 17 16 18 19 20 23 24 24 21 27 31 32 37 38 39 43 43 49 40 34 37 36 33 31 32 34 34 34 35 35
5 3 5 5 7 6 7 8 10 9 10 12 14 17 20 23 27 24 21 19 24 28 27 31 32 38 39 49 48 50 42 34 38 37 35 32 33 34 35 34 35 35 34
9 4 4 6 6 6 7 9 14 14 14 17 21 24 25 27 25 25 23 29 29 32 35 37 39 37 42 49 53 45 35 36 39 36 36 33 35 35 35 36 35 34 34
15 13 11 11 12 12 13 17 20 19 19 22 25 28 27 27 27 26 26 30 34 27 34 40 41 47 48 50 49 35 37 39 38 35 33 33 35 35 36 36 35 34 34
14 17 17 17 18 18 20 19 19 21 24 28 32 33 32 30 30 30 29 31 32 35 34 47 48 50 52 48 38 41 40 41 35 34 32 34 35 36 36 36 35 34 33
17 20 21 21 21 21 22 22 22 24 28 30 30 31 31 31 30 29 29 32 35 36 44 53 57 50 39 41 38 40 42 35 35 32 33 35 36 37 36 36 35 33 33
21 21 21 21 21 20 20 21 24 26 27 28 29 28 29 28 27 27 30 32 42 40 53 48 41 37 39 37 37 39 39 33 33 34 35 37 38 38 37 36 36 33 32
18 17 17 17 18 19 22 25 27 27 26 25 24 25 26 28 30 31 31 37 32 37 33 38 36 38 37 34 36 34 36 34 35 36 37 37 38 39 38 37 37 33 32
14 16 17 19 22 23 23 22 21 21 22 24 25 27 29 31 33 33 30 32 30 32 35 37 37 34 32 32 33 34 36 37 38 38 38 39 39 37 37 38 37 34 31
15 18 19 20 21 20 20 20 21 22 24 26 25 24 24 24 27 28 27 29 34 34 30 29 33 33 33 33 35 37 39 40 40 41 40 40 39 37 37 37 36 34 28
17 18 18 18 18 19 20 21 24 25 25 24 24 25 26 28 31 25 25 26 28 30 31 32 33 34 36 37 39 41 43 44 45 45 43 41 39 38 37 36 36 35 33
16 17 17 18 19 20 22 24 25 26 26 25 26 30 28 22 23 24 25 27 29 31 33 35 37 37 39 41 43 45 47 47 50 49 47 44 40 37 37 36 35 32 38
16 16 18 19 21 22 25 25 26 27 26 28 25 21 23 23 24 25 27 29 32 34 36 38 41 42 44 45 46 48 50 51 52 51 47 42 38 34 35 33 33 32 36
17 19 20 21 23 27 28 27 26 26 29 22 22 21 22 24 26 28 30 32 34 36 39 42 45 47 49 51 53 53 52 50 48 45 43 41 37 38 34 33 30 30 33
20 22 23 24 27 29 28 28 29 26 21 21 21 22 24 26 28 29 31 34 37 40 44 47 50 52 53 54 55 55 54 51 46 41 41 39 34 32 29 28 25 29 32
24 25 25 28 29 29 27 28 22 20 20 21 22 24 26 28 30 32 33 36 40 43 46 48 50 52 53 54 53 52 49 47 42 39 38 35 35 26 26 25 23 23 24

GFSMW_700_spd_042.txt.gz
Wind_Speed
14 15 15 16 17 17 18 17 17 17 17 16 16 16 15 15 15 15 17 18 17 15 15 14 14 14 16 16 17 19 22 24 26 29 35 40 39 38 37 40 42 40 34
18 18 19 19 18 17 17 16 16 15 15 16 16 16 15 15 17 17 17 18 18 17 17 17 17 16 18 19 20 23 25 27 29 33 37 40 45 43 43 41 39 34 35
18 18 15 16 16 15 15 16 17 18 18 18 18 18 17 15 13 15 17 17 18 19 21 22 21 20 20 22 24 26 29 31 34 37 42 42 32 41 43 39 33 35 37
17 17 17 16 15 15 17 18 19 18 18 19 18 18 17 15 15 15 18 20 20 21 25 25 24 23 24 25 25 28 31 34 38 43 38 37 32 31 32 40 42 40 37
15 16 16 18 17 18 17 17 18 20 20 20 20 19 19 19 19 19 23 24 25 25 25 24 26 25 25 27 28 30 34 36 34 38 38 36 35 32 32 35 36 41 42
22 21 21 23 20 20 20 21 21 21 22 24 22 21 22 24 21 20 20 23 26 27 26 26 27 26 25 28 31 33 33 34 35 36 36 38 35 37 37 37 38 39 37
27 26 25 24 24 23 21 20 21 20 23 27 16 21 27 25 25 24 24 25 25 27 27 28 26 25 29 27 32 35 34 41 40 41 38 37 36 39 35 38 38 37 35
24 29 31 29 28 26 24 23 22 21 22 24 26 26 20 26 28 30 29 29 27 25 26 25 24 26 24 31 34 35 36 36 39 41 41 41 42 33 36 39 36 36 33
21 25 26 29 31 32 30 27 25 26 23 25 32 24 20 23 27 28 30 30 29 28 26 25 26 26 33 34 36 40 36 38 39 42 47 43 34 37 37 36 34 36 35
13 20 23 26 28 30 30 28 27 27 26 25 28 20 22 25 26 26 26 28 29 29 27 29 32 30 31 35 34 38 45 36 44 42 40 35 36 36 36 35 35 35 36
4 11 15 19 24 26 28 27 29 30 30 29 26 21 20 23 22 23 25 26 31 35 32 32 28 33 32 35 39 40 46 46 42 39 35 36 37 35 36 35 35 34 34
5 6 8 11 15 20 21 21 24 25 26 27 24 18 19 21 23 26 29 31 29 28 24 27 30 33 36 37 36 44 50 44 35 35 38 38 36 37 34 35 34 34 32
10 10 9 11 11 11 11 12 14 14 15 18 18 21 23 24 26 28 29 29 29 33 25 30 34 39 38 39 41 50 53 36 38 38 38 39 36 36 34 34 34 31 31
15 15 15 15 14 13 13 13 16 17 18 21 23 25 26 29 31 31 31 31 32 30 34 34 33 41 50 43 52 47 37 41 39 38 39 36 34 34 35 35 34 33 35
16 15 20 20 20 20 20 22 23 23 23 24 25 27 29 31 32 33 33 32 32 34 35 35 36 38 38 42 42 38 39 38 39 37 36 35 33 34 35 36 37 36 36
22 19 21 23 22 22 23 21 23 25 26 26 27 29 31 30 31 33 34 34 31 32 32 34 31 27 30 32 33 36 38 37 36 37 33 35 35 36 37 39 39 39 39
16 19 20 24 26 24 24 24 23 22 24 26 28 30 31 31 31 31 32 30 27 33 34 34 36 35 31 32 35 35 35 35 33 35 35 36 37 40 39 40 40 41 41
21 22 23 21 20 20 20 20 22 25 27 28 27 26 27 28 30 32 33 33 34 35 34 33 31 31 33 31 30 32 33 34 35 37 37 38 39 40 42 38 40 42 41
21 19 17 16 17 19 21 23 25 24 23 23 24 26 28 29 31 31 30 27 28 27 28 30 29 28 30 29 31 34 36 38 38 40 41 41 41 40 41 39 40 40 39
21 19 17 17 19 21 22 22 20 21 22 23 25 26 26 25 25 24 26 25 23 23 24 27 28 29 31 31 33 36 39 42 43 45 46 46 45 42 42 42 41 41 38
20 19 18 19 20 19 19 18 19 21 23 24 24 23 23 24 24 21 21 22 22 24 26 28 30 32 34 35 37 40 44 47 50 52 52 52 51 46 42 41 40 38 34
20 19 19 19 18 18 18 20 21 23 24 24 23 23 23 20 20 20 21 22 24 26 29 31 33 34 36 39 41 44 48 51 54 55 54 54 51 48 43 40 37 33 33
20 20 19 18 17 18 20 21 23 24 24 25 26 23 21 21 20 21 22 25 27 29 31 34 36 38 41 43 46 47 49 51 53 54 54 52 49 46 45 37 34 36 35
21 20 19 19 20 21 22 24 25 26 26 26 23 21 21 21 21 23 24 26 29 31 34 36 39 42 44 47 50 53 56 56 55 54 53 48 43 41 44 38 37 36 30
22 22 22 22 23 24 25 26 27 27 27 22 21 21 21 21 23 24 26 28 31 33 35 39 41 44 48 52 55 57 57 55 52 50 47 43 39 32 32 34 35 28 27
25 25 26 26 26 27 28 29 28 28 23 21 21 21 21 22 23 25 29 29 30 34 37 40 43 47 51 54 54 53 50 47 46 44 41 37 33 26 25 28 28 23 25

GFSMW_700_spd_045.txt.gz
Wind_Speed
9 8 11 13 13 13 16 19 20 20 19 18 20 20 20 20 20 20 21 21 22 21 20 22 17 17 18 17 16 18 19 21 23 27 31 36 42 42 39 32 36 36 35
12 13 14 15 15 15 16 17 17 17 16 16 17 17 17 16 16 18 18 19 20 20 21 23 19 19 20 20 20 21 22 26 25 27 31 35 38 43 44 35 33 34 31
16 15 15 17 13 14 14 15 16 17 17 16 17 18 18 18 18 18 17 18 20 20 22 24 23 23 25 24 24 24 25 28 29 28 33 35 34 31 34 43 36 35 35
19 16 16 17 17 16 17 17 17 17 18 19 18 19 18 19 18 18 18 19 21 22 24 25 26 27 27 28 27 27 26 27 34 34 37 32 32 33 30 33 41 41 42
21 19 16 15 16 18 17 17 17 18 20 21 22 24 24 23 22 23 22 20 23 24 27 28 26 27 27 29 29 28 25 29 33 33 34 39 38 37 34 32 26 31 36
21 20 19 18 19 18 18 18 19 20 22 23 25 23 22 22 25 27 22 22 24 24 27 31 31 30 28 31 29 30 31 30 33 36 36 37 37 35 34 36 35 34 34
24 24 24 24 24 23 23 22 22 23 24 28 24 25 24 24 33 34 29 28 26 25 25 28 30 31 31 29 27 30 25 35 36 37 42 39 35 34 37 39 34 35 37
26 27 27 27 27 27 26 25 24 24 26 30 30 22 28 20 24 23 21 21 28 29 30 31 31 30 28 28 26 26 36 37 37 44 45 39 38 39 38 33 33 37 38
18 26 29 29 29 29 31 29 28 27 29 31 30 23 25 20 24 22 24 26 28 29 31 30 29 30 29 29 31 34 35 37 42 40 38 45 36 33 32 34 34 36 41
9 18 24 28 29 30 31 35 34 32 31 28 27 23 20 23 24 26 27 29 27 27 27 29 31 32 39 35 32 32 34 37 39 42 44 47 32 32 34 36 38 40 41
4 7 13 21 26 29 30 34 33 31 31 32 30 29 25 25 25 26 27 26 28 28 28 30 32 34 35 28 28 37 39 40 37 43 49 35 35 37 36 39 39 40 39
5 6 10 14 19 22 24 24 23 24 25 31 29 28 29 27 24 24 24 27 29 30 31 33 34 31 36 29 33 44 46 48 43 39 39 42 38 37 40 39 38 39 35
11 12 13 15 18 19 21 23 24 24 24 26 24 23 23 23 24 25 28 29 31 32 35 34 35 38 33 36 38 45 43 45 41 39 41 39 37 38 38 38 39 36 32
14 13 14 18 19 18 18 18 19 20 19 18 18 21 22 25 27 29 31 33 34 35 35 35 37 29 33 36 39 44 38 44 39 39 39 39 39 38 37 36 36 36 36
17 19 18 21 23 22 22 22 21 21 20 20 21 21 24 28 31 32 33 35 36 35 33 29 33 34 36 32 33 39 39 38 38 38 40 39 39 36 35 35 35 37 39
18 20 23 24 27 28 27 26 25 23 23 25 27 29 30 32 33 33 32 34 34 34 34 34 36 39 38 39 39 36 38 39 38 37 38 37 37 38 39 38 39 39 41
23 20 21 25 27 30 30 29 27 28 28 29 31 30 30 31 33 34 32 31 32 34 35 35 37 39 38 37 34 35 34 35 37 37 38 38 38 39 41 43 47 44 43
26 24 21 20 23 27 28 26 24 23 24 25 28 31 31 31 30 31 32 34 35 36 36 34 34 32 31 31 30 33 35 38 37 38 40 41 42 43 43 44 45 46 47
30 28 24 22 24 23 22 22 22 24 27 29 30 29 29 29 31 32 33 33 33 32 31 29 27 27 28 29 31 35 37 38 38 40 42 45 46 47 47 47 49 47 43
24 25 24 24 23 22 22 23 24 26 28 27 27 27 28 29 29 30 31 30 29 26 26 25 25 27 28 31 32 33 37 41 43 46 46 48 50 50 52 53 48 49 45
23 25 25 24 22 22 23 24 25 25 25 25 25 26 27 28 28 28 26 24 25 25 25 26 27 28 30 32 35 35 38 42 45 48 50 52 53 54 53 52 51 46 42
25 27 26 24 24 24 25 25 25 25 25 25 25 26 27 27 26 24 25 25 25 25 26 26 27 29 31 35 37 38 40 43 47 51 54 55 55 54 52 50 47 48 48
27 27 27 25 25 26 26 26 26 26 25 25 26 27 27 26 24 24 24 24 24 25 27 28 30 31 33 36 38 39 42 47 50 52 53 52 50 48 46 42 41 40 43
29 30 29 28 28 28 27 27 27 27 27 28 28 27 25 24 24 24 24 26 25 27 28 30 31 33 35 38 40 44 47 50 52 53 51 48 43 41 39 36 30 30 33
32 32 31 30 29 29 28 28 29 30 31 30 28 26 24 24 24 24 25 26 25 28 29 30 32 34 36 40 44 48 51 53 53 52 49 46 44 40 35 29 24 25 24
34 34 33 32 31 31 31 31 33 34 33 30 29 25 24 24 25 26 25 25 28 29 29 31 33 36 40 43 47 50 52 52 50 47 46 42 40 36 31 23 22 24 23

GFSMW_700_spd_048.txt.gz
Wind_Speed
9 9 8 10 12 15 20 20 20 20 21 23 23 22 22 19 19 20 20 22 24 22 20 19 19 17 20 18 17 18 20 19 21 22 23 28 33 33 36 36 34 32 31
5 6 8 14 17 15 18 18 17 18 18 17 17 19 19 19 19 21 22 22 18 19 19 21 21 18 23 22 20 19 21 24 23 24 26 27 32 37 36 36 34 31 28
8 7 8 10 12 18 20 21 20 19 19 19 18 18 19 20 21 20 18 16 17 18 19 20 23 22 24 27 24 24 25 26 28 26 26 29 35 38 36 36 38 38 37
9 11 9 9 11 12 15 16 18 18 18 19 19 17 17 18 17 17 17 19 20 20 21 21 25 27 25 28 26 27 28 28 33 28 27 31 36 36 32 35 38 39 38
15 12 13 11 9 9 10 12 15 17 17 19 18 20 21 18 17 16 17 20 20 22 23 23 25 26 29 30 30 28 29 30 31 32 36 35 35 34 39 42 28 34 39
19 17 14 15 16 15 15 14 14 14 15 17 19 19 19 18 19 19 24 28 23 26 26 24 24 24 26 31 34 31 32 31 28 33 29 33 36 39 42 46 37 36 34
22 24 22 21 20 20 19 19 18 18 18 19 20 20 18 21 22 25 25 31 31 30 20 24 26 25 28 29 29 32 32 29 31 34 32 39 36 40 41 42 40 36 32
23 25 24 24 23 22 21 20 20 21 23 25 27 24 18 19 19 26 22 26 20 10 19 24 27 31 33 29 32 31 32 30 35 33 35 38 38 42 42 47 42 35 33
21 23 25 27 27 23 25 25 24 24 27 28 28 25 21 23 21 21 23 23 25 19 20 25 26 27 27 29 30 32 35 34 32 37 38 39 33 39 41 39 34 39 41
15 19 25 27 31 30 29 26 28 29 30 32 32 30 34 22 20 20 19 24 26 22 24 23 25 25 27 30 27 30 35 31 32 35 44 44 37 39 38 39 38 37 40
8 13 23 22 32 33 32 35 30 33 36 38 33 30 28 27 23 24 22 23 24 25 26 26 27 28 29 29 29 28 35 33 33 41 49 41 34 38 39 38 38 39 39
5 9 8 14 29 30 26 31 32 38 32 30 29 22 24 24 24 24 25 23 24 26 28 28 29 31 32 31 29 34 37 32 41 35 41 41 44 40 41 41 41 39 37
9 10 15 13 15 17 23 36 38 35 27 25 24 22 20 21 21 22 22 25 27 29 31 31 33 33 33 31 35 35 30 39 37 40 40 42 41 41 41 40 39 38 37
12 12 16 17 16 17 20 23 24 22 21 21 21 21 17 18 19 23 24 27 29 32 34 34 35 33 31 35 25 40 41 45 42 41 41 40 40 40 39 38 37 36 37
18 15 15 19 23 18 22 24 23 20 20 21 20 19 18 21 22 24 27 30 33 35 36 37 38 35 35 33 40 39 44 44 42 38 37 36 36 37 37 37 37 37 39
17 19 20 22 28 23 24 25 24 24 24 23 24 24 25 26 30 31 31 32 33 34 36 33 32 33 36 36 38 38 41 39 38 35 35 35 36 36 38 39 40 41 43
25 26 20 28 33 28 25 25 29 29 28 27 27 29 30 31 33 32 33 35 34 32 32 33 34 35 34 32 34 33 33 33 33 34 35 36 37 37 39 41 43 45 46
28 24 28 28 27 24 24 25 30 32 30 30 33 32 28 29 32 33 32 31 31 32 33 32 32 32 31 31 28 29 31 32 33 34 36 37 39 41 43 46 49 51 52
30 24 28 29 27 25 22 24 28 30 30 27 25 27 29 30 30 29 29 30 31 32 33 32 32 29 29 30 29 30 32 32 34 34 36 39 42 44 48 52 55 55 55
24 26 27 30 30 26 24 24 25 24 24 25 27 28 28 28 28 28 29 30 31 32 31 28 27 27 31 32 29 29 32 33 35 37 38 41 45 48 51 53 55 56 55
27 24 24 24 24 24 24 23 23 24 26 27 27 27 27 27 28 28 30 31 31 29 27 27 27 29 32 31 30 30 31 34 36 38 42 45 48 50 52 51 51 49 48
24 23 23 23 24 25 25 26 26 27 28 28 28 28 28 29 30 31 31 30 28 28 27 26 27 28 31 32 30 30 33 36 39 43 45 47 49 51 50 48 46 45 44
23 24 24 25 28 29 29 29 28 29 29 30 30 30 31 31 32 32 31 30 28 27 27 27 27 29 30 32 30 32 34 38 41 44 46 48 49 50 48 44 42 40 39
25 27 28 30 31 32 31 30 29 30 31 32 32 32 32 32 33 32 31 28 27 27 27 27 28 29 30 31 32 33 36 39 42 45 46 48 49 48 46 42 39 36 32
29 30 32 33 34 34 34 32 33 34 34 35 35 34 34 33 34 31 29 28 27 27 28 27 28 28 30 32 34 36 38 41 44 46 48 50 50 48 44 39 36 34 28
32 34 35 36 38 38 37 36 36 38 39 38 37 36 36 35 36 31 30 27 26 26 26 27 28 29 30 34 36 37 40 43 45 47 49 50 49 46 43 39 36 33 27

GFSMW_700_spd_051.txt.gz
Wind_Speed
3 6 8 10 17 26 23 22 22 19 17 25 27 38 42 37 35 29 25 26 25 22 22 20 20 18 18 16 15 15 15 17 18 20 22 24 26 25 28 30 30 30 26
6 6 6 9 11 15 17 17 17 21 24 29 32 32 33 31 25 20 24 27 25 22 21 21 23 19 21 20 18 19 20 22 22 22 25 28 29 30 29 32 31 31 35
5 7 6 9 10 11 14 16 16 15 19 23 25 26 27 28 24 21 20 18 17 18 17 21 23 20 22 22 22 23 24 26 27 26 29 29 31 31 31 32 32 38 38
6 9 10 8 10 12 12 13 14 16 19 20 20 20 20 18 16 17 17 16 15 18 20 21 21 22 20 23 25 25 27 29 30 31 29 30 33 32 33 29 34 37 40
8 6 7 11 13 13 13 12 13 15 16 17 18 17 16 17 16 16 17 18 18 17 21 22 24 23 22 22 23 26 28 33 35 35 30 30 31 28 29 32 34 36 38
8 11 12 13 15 16 16 17 17 17 18 17 16 14 15 13 14 18 21 17 15 21 21 32 26 22 20 21 24 28 28 29 32 32 36 37 32 27 30 34 32 37 34
11 9 15 17 18 18 17 18 20 20 19 19 18 17 18 16 11 12 18 16 21 20 18 19 12 17 20 22 29 32 32 29 30 28 41 33 27 29 34 33 34 38 35
16 15 13 13 15 19 20 19 20 18 19 18 19 19 16 13 12 13 19 20 21 20 19 8 14 20 24 29 31 32 33 29 29 30 35 30 30 25 34 46 38 39 38
22 20 18 17 19 18 22 22 21 20 21 21 20 21 18 14 14 17 16 20 22 22 20 20 16 22 24 23 24 25 25 28 30 27 37 37 32 32 41 46 36 39 41
19 25 24 22 21 23 20 18 23 26 22 23 25 25 25 26 23 20 19 21 21 21 20 23 20 21 22 23 23 24 25 27 35 25 35 34 30 39 38 42 42 41 39
12 13 18 29 30 30 28 24 26 36 25 24 26 28 29 31 32 31 24 22 22 20 19 23 24 24 24 23 24 26 26 30 30 28 38 31 35 41 36 42 41 38 37
16 15 17 18 18 27 38 41 41 32 19 20 25 28 27 23 26 34 25 24 23 21 21 22 24 26 27 27 26 26 33 28 36 41 28 30 41 42 41 42 39 38 36
16 21 18 16 18 25 25 26 26 24 18 23 17 21 26 22 16 21 23 22 20 21 21 24 27 29 30 30 32 35 31 31 31 32 40 43 46 41 41 39 38 36 36
18 18 19 16 15 18 21 22 24 21 19 16 22 25 24 21 15 16 15 16 18 21 24 27 29 31 33 33 31 26 35 29 32 38 40 44 39 39 38 36 35 34 36
18 16 17 22 24 22 19 20 22 25 24 26 20 16 16 17 19 19 19 20 22 26 29 31 33 33 32 33 31 29 33 36 40 36 38 38 34 33 35 36 36 36 38
26 25 23 26 28 29 26 21 22 24 26 24 22 20 21 21 20 21 23 26 29 31 32 31 32 31 31 30 31 36 34 34 35 35 32 30 32 32 34 36 38 40 42
23 24 28 29 29 34 34 25 25 24 25 29 28 25 24 23 24 26 28 31 30 30 31 30 31 32 32 32 32 34 32 30 29 29 31 31 33 34 37 37 39 41 43
24 27 30 29 30 32 34 30 25 26 29 32 30 28 26 27 30 31 29 30 31 31 29 31 32 33 32 32 31 29 28 27 28 30 31 33 33 35 38 41 44 47 47
23 28 31 31 31 32 33 30 25 26 29 31 28 29 33 30 28 30 32 32 30 29 30 30 32 33 33 28 26 27 28 29 30 31 32 33 34 35 39 45 49 49 49
27 29 29 28 29 30 31 29 27 26 25 27 28 26 25 27 29 30 30 29 29 30 30 31 34 33 29 28 28 28 28 29 30 29 30 31 35 39 43 47 48 50 49
24 24 25 28 29 27 27 28 28 26 25 24 25 25 26 29 30 29 29 29 29 30 32 34 32 31 29 28 28 28 30 31 30 30 30 33 37 41 43 46 47 49 49
24 22 23 25 26 25 25 26 26 26 26 25 25 27 29 30 29 29 30 30 30 31 32 32 33 33 31 29 29 29 30 30 31 31 33 36 39 41 44 46 47 47 47
23 23 22 24 25 25 25 26 27 27 26 27 28 29 30 31 31 31 33 34 33 33 32 34 35 34 31 29 29 29 29 30 32 34 36 38 40 42 44 45 46 46 46
24 23 23 24 26 27 28 29 30 30 30 31 31 32 33 34 34 34 35 33 33 34 34 32 32 32 29 27 29 29 30 32 34 35 37 40 41 42 44 44 45 45 46
24 23 24 26 29 30 32 32 33 35 35 34 35 36 36 38 38 37 36 37 37 35 34 32 30 27 27 29 30 31 32 34 36 37 40 41 42 43 44 45 45 46 44
26 25 27 29 32 34 36 37 40 41 40 39 39 40 41 41 40 38 37 37 37 34 31 28 28 28 27 29 31 32 34 38 39 40 42 43 44 45 45 46 45 45 43